User: anonymous
Location: Caltech
(34.1382°N, 118.1253°W)
Time: 14:14:18
(UTC-07:00)
Language:

Meteor 1-11 Rocket - Orbit

View from above orbital plane
View from above orbital plane
View from above satellite
View from above satellite

Ground track
Ground track

The orbit data is extracted from the following two-line orbital elements,

1 05918U 72022B   14292.77791703  .00000119  00000-0  64527-4 0  2807
2 05918 081.2386 185.5403 0059019 175.0556 261.0065 14.05725421181519
Epoch (UTC): 19 October 2014 18:40:12
Eccentricity: 0.0059019
inclination: 81.2386°
perigee height: 831 km
apogee height: 917 km
right ascension of ascending node: 185.5403°
argument of perigee: 175.0556°
revolutions per day: 14.05725421
mean anomaly at epoch: 261.0065°
orbit number at epoch: 18151

The dashed part of the orbit path shows where the satellite is in the earth's shadow,  

DLR